Location: Marshall
(39.8477°N, 87.1868°W)
Time: 02:33:13
(UTC+00:00)

Envisat - Pass Details

Date: 09 May 2026
Orbit: 761 x 763 km, 98.4° (Epoch: 9 June)

Event Time Altitude Azimuth Distance (km) Brightness Sun altitude
Rises 09:23:59 0° 0° (N) 3,232 6.8 -13.4°
Reaches altitude 10° 09:26:35 10° 349° (N) 2,302 5.8 -13.0°
Maximum altitude 09:30:45 27° 293° (WNW) 1,449 4.2 -12.3°
Enters shadow 09:33:43 16° 247° (WSW) 1,923 4.4 -11.9°
